Poplar Bluff, MO

10:20 AM CST on December 10, 2019 (GMT -0600)
Poplar Bluff Municipal

Weather History for KPOF - October, 2019

Change the Weather History Date:

Tuesday, October 22, 2019

  Actual Average Record
Temperature  
Mean Temperature 54 °F 57 °F  
Max Temperature 66 °F 69 °F 89 °F (1941)
Min Temperature 41 °F 45 °F 20 °F (1952)
Degree Days  
Heating Degree Days 12 9  
Month to date heating degree days 129 132  
Since 1 July heating degree days 129 161  
Cooling Degree Days 0 1  
Month to date cooling degree days 49 32  
Year to date cooling degree days 1830 1559  
Growing Degree Days 4 (Base 50)    
Moisture  
Dew Point 34 °F    
Average Humidity 47    
Maximum Humidity 82    
Minimum Humidity 24    
Precipitation  
Precipitation 0.00 in 0.18 in 1.61 in (1983)
Month to date precipitation 2.33 3.08  
Year to date precipitation 56.95 37.61  
Sea Level Pressure  
Sea Level Pressure 29.98 in    
Wind  
Wind Speed 8 mph ()    
Max Wind Speed 20 mph    
Max Gust Speed 36 mph    
Visibility 10.0 miles    
Events      
T = Trace of Precipitation, MM = Missing Value Source: Averaged Metar Reports

Daily Weather History Graph

Daily Weather History Graph

Search for Another Location

Airport or City:

Astronomy

Oct. 22, 2019 Rise Set
Actual Time 7:15 AM CDT 6:15 PM CDT
Civil Twilight 6:48 AM CDT 6:42 PM CDT
Nautical Twilight 6:18 AM CDT 7:12 PM CDT
Astronomical Twilight 5:48 AM CDT 7:42 PM CDT
Moon 12:37 AM CDT (10/22) 3:13 PM CDT (10/22)
Length of Visible Light 11h 53m
Length of Day
11h 00m
Last Quarter, 37% of the Moon is Illuminated
Oct 22
Last Quarter
Oct 27
New
Nov 4
First Quarter
Nov 12
Full
Nov 19
Last Quarter

Hourly Weather History & Observations

Time (CDT) Temp. Windchill Dew Point Humidity Pressure Visibility Wind Dir Wind Speed Gust Speed Precip Events Conditions
1:53 AM 53.1 °F - 37.9 °F 57% 29.84 in 10.0 mi WSW 4.6 mph - N/A   Clear
2:53 AM 55.0 °F - 36.0 °F 49% 29.86 in 10.0 mi West 10.4 mph - N/A   Clear
3:53 AM 52.0 °F - 37.0 °F 57% 29.88 in 10.0 mi West 6.9 mph - N/A   Clear
4:53 AM 50.0 °F - 37.0 °F 61% 29.89 in 10.0 mi WSW 6.9 mph - N/A   Clear
5:53 AM 48.9 °F - 37.0 °F 64% 29.92 in 10.0 mi WSW 3.5 mph - N/A   Clear
6:53 AM 46.9 °F - 37.0 °F 68% 29.94 in 10.0 mi WSW 4.6 mph - N/A   Clear
7:53 AM 48.0 °F - 37.9 °F 68% 29.96 in 10.0 mi WSW 4.6 mph - N/A   Clear
8:53 AM 51.1 °F - 39.0 °F 63% 29.99 in 10.0 mi West 9.2 mph - N/A   Clear
9:53 AM 54.0 °F - 37.0 °F 53% 29.99 in 10.0 mi West 13.8 mph 21.9 mph N/A   Clear
10:53 AM 57.0 °F - 36.0 °F 45% 30.00 in 10.0 mi West 15.0 mph 24.2 mph N/A   Clear
11:53 AM 60.1 °F - 30.9 °F 33% 30.01 in 10.0 mi West 18.4 mph 27.6 mph N/A   Clear
12:53 PM 62.1 °F - 28.9 °F 29% 30.00 in 10.0 mi West 15.0 mph 25.3 mph N/A   Clear
1:53 PM 64.0 °F - 27.0 °F 25% 29.98 in 10.0 mi West 18.4 mph 26.5 mph N/A   Clear
2:53 PM 64.9 °F - 27.0 °F 24% 29.98 in 10.0 mi West 17.3 mph 26.5 mph N/A   Clear
3:53 PM 64.9 °F - 28.0 °F 25% 29.99 in 10.0 mi West 11.5 mph 25.3 mph N/A   Clear
4:53 PM 64.0 °F - 28.9 °F 27% 29.98 in 10.0 mi West 12.7 mph 26.5 mph N/A   Partly Cloudy
5:53 PM 62.1 °F - 30.0 °F 30% 30.00 in 10.0 mi West 12.7 mph 23.0 mph N/A   Scattered Clouds
6:53 PM 57.0 °F - 34.0 °F 42% 30.02 in 10.0 mi SW 5.8 mph - N/A   Clear
7:53 PM 54.0 °F - 34.0 °F 47% 30.04 in 10.0 mi WSW 4.6 mph - N/A   Partly Cloudy
8:53 PM 53.1 °F - 34.0 °F 48% 30.06 in 10.0 mi West 5.8 mph - N/A   Clear
9:53 PM 52.0 °F - 34.0 °F 50% 30.08 in 10.0 mi WSW 3.5 mph - N/A   Clear
11:53 PM 43.0 °F 41.3 °F 37.0 °F 80% 30.09 in 10.0 mi SSW 3.5 mph - N/A   Clear